OBJECT C, 69540

Orbit data source: Space-Track

You're viewing an Uncataloged Satellite

Recently launched and/or uncataloged satellites may have evolving metadata. Metadata may include but not limited to: Owner, Maufacturer, Bus, Motor, and Mission.

OBJECT C, 69540 is a Chinese satellite in SSO that was launched on Mon, 15 Jun 2026 UTC via a LIJIAN-1 launch vehicle from the Jiuquan Satellite Launch Center, China (JSC). Unknown objects in Earth's orbit typically refer to objects detected orbiting the Earth but have not yet been identified or cataloged. These objects could be anything from previously untracked satellites, spent rocket stages, debris from satellite collisions, or even natural meteoroids temporarily captured by Earth's gravity.

Loading next visibility...
Identifier
69540, 2026-134C
Orbit
SSO
Country
Flag of CNCN / PRC
Related business
None
Manufacturer
Unknown
Mission
Operational spacecraft
Bus & Motor
Unknown
Mass
Unknown
Launch date (UTC)
2026-06-15 (1 day ago)
Launch vehicle
LIJIAN-1
Launch site
Jiuquan Satellite Launch Center, China (JSC)
Object type
Unknown
Shape & HBR
Unknown
Radar Cross Section
RCS unknown

Expand to show TLE details & history
Last TLE update: 1 day ago

TLE from 1 day ago
0 OBJECT C
1 69540U 26134C   26166.46460766  .00001400  00000-0  91654-4 0  9994
2 69540  97.6941 236.5578 0013934 282.6149  77.3521 15.09376098    47
Epoch: 2026-06-15T11:09Z
TLE epoch observation values (Epoch: 2026-06-15T11:09:02.101Z)
Latitude
-0.00006°
Longitude
165.54844°
Altitude
539.075 km
Speed
7.594 km/s
True Right ascension
15h 46m 13s
True Declination
0° 00' 00"
Sunlit
Object was in full shadow at epoch
Visualization orbit readout
Latitude
Unknown
Longitude
Unknown
Altitude
Unknown
Speed
Unknown
Apparent Right ascension
Unknown
Apparent Declination
Unknown
Sunlit
N/A
Visualization observer readout
Local Sidereal Time
04:51:25
Azimuth
Unknown
Elevation
Unknown
Doppler factor
Unknown
Orbital elements
Apogee altitude
544.731 km
Perigee altitude
525.465 km
Semi-major axis
6,913.235 km
Eccentricity
0.00139
Inclination
97.6941°
RAAN
236.5578°
Arg. of periapsis
282.6149°
True anomaly
77.50796°
Mean anomaly
77.3521°
Eccentric anomaly
77.43002°
Mean motion
3.77591 °/min
Orbital period
95.34 mins
BSTAR
0.000091654
Loading maneuver chart data...
Computing Atmospheric mass density...
Loading historical data...
Loading historical data...
Loading historical data...
Loading historical data...
Loading historical data...
Loading historical data...
Loading historical data...

Documentation

Showing up to 5 results
|